CPA2174 YPAD-VHHH

Flight info

Callsign CPA2174
Flight time N/A
Altitude 34000
Route AREPA Q8 AKDAV T20 BOPLO/N0493F360 B349 BLI M522 ELANG/N0492F370 R223 BRU/N0496F360 L649 DAKIX/N0492F370 L649 LAXOR/N0489F380 M772 ASOBA DCT EPDOS DCT MYWAY/N0495F370 V561 CANTO
Aircraft B77W/H-SDE1E2E3FGHIJ2J3J4J5M1RWXY/LB1D1

Departure

Time 2025-09-09 14:46
Airport Adelaide International Airport (YPAD)

Arrival

Time N/A
Airport Hong Kong International Airport (VHHH)
Time Latitude Longitude Altitude Speed Heading
2025-09-09 14:40 -34.94118 138.54243 30 ft 0 kts 226°
2025-09-09 14:41 -34.94052 138.54131 30 ft 18 kts 337°
2025-09-09 14:41 -34.93977 138.54217 30 ft 0 kts 144°
2025-09-09 14:44 -34.94029 138.54263 30 ft 18 kts 148°
2025-09-09 14:44 -34.94139 138.54214 30 ft 19 kts 228°
2025-09-09 14:45 -34.95410 138.52376 33 ft 188 kts 230°
2025-09-09 14:45 -34.97210 138.49805 1179 ft 202 kts 223°
2025-09-09 14:46 -34.99143 138.46950 1890 ft 239 kts 225°
2025-09-09 14:46 -35.01372 138.43690 3144 ft 256 kts 226°
2025-09-09 14:47 -35.03673 138.40290 4705 ft 260 kts 233°
2025-09-09 14:47 -35.03990 138.35926 5986 ft 278 kts 297°
2025-09-09 14:48 -35.01216 138.32571 7160 ft 289 kts 321°
2025-09-09 14:48 -34.99662 138.31026 7965 ft 288 kts 321°
2025-09-09 14:49 -34.94653 138.26997 9927 ft 288 kts 343°
2025-09-09 14:49 -34.90737 138.25331 10647 ft 317 kts 342°
2025-09-09 14:50 -34.86330 138.23391 11081 ft 358 kts 341°
2025-09-09 14:50 -34.81511 138.21227 12282 ft 375 kts 340°
2025-09-09 14:51 -34.76668 138.18820 13698 ft 383 kts 326°
2025-09-09 14:51 -34.73267 138.13835 14938 ft 391 kts 303°
2025-09-09 14:52 -34.70236 138.08292 16491 ft 396 kts 304°
2025-09-09 14:52 -34.68691 138.05501 17143 ft 402 kts 305°
2025-09-09 14:53 -34.63922 137.96947 19185 ft 414 kts 306°
2025-09-09 14:53 -34.60664 137.91124 20481 ft 420 kts 306°
2025-09-09 14:54 -34.57324 137.85227 21721 ft 427 kts 309°
2025-09-09 14:54 -34.53075 137.80162 22787 ft 432 kts 320°
2025-09-09 14:55 -34.48487 137.75380 23957 ft 437 kts 320°
2025-09-09 14:57 -34.30264 137.55724 28144 ft 444 kts 317°
2025-09-09 14:59 -34.11755 137.35690 31187 ft 447 kts 316°
2025-09-09 15:01 -33.93280 137.15820 33496 ft 444 kts 315°
2025-09-09 15:03 -33.74826 136.96091 34038 ft 441 kts 315°
2025-09-09 15:05 -33.56386 136.76493 34064 ft 445 kts 315°
2025-09-09 15:07 -33.37767 136.56825 34069 ft 447 kts 315°
2025-09-09 15:09 -33.19138 136.37261 34070 ft 445 kts 315°
2025-09-09 15:11 -33.00643 136.17667 34075 ft 442 kts 311°
2025-09-09 15:13 -32.81022 135.94428 34076 ft 443 kts 311°
2025-09-09 15:15 -32.65731 135.76468 34083 ft 440 kts 311°
2025-09-09 15:17 -32.48349 135.56156 34083 ft 439 kts 311°
2025-09-09 15:19 -32.30960 135.35956 34096 ft 437 kts 310°
2025-09-09 15:21 -32.13663 135.15977 34097 ft 432 kts 310°
2025-09-09 15:23 -31.96503 134.96262 34105 ft 429 kts 310°
2025-09-09 15:25 -31.79428 134.76755 34117 ft 428 kts 309°
2025-09-09 15:27 -31.62316 134.57310 34119 ft 428 kts 309°
2025-09-09 15:29 -31.45177 134.37940 34136 ft 427 kts 309°
2025-09-09 15:31 -31.28768 134.19492 34129 ft 426 kts 309°
2025-09-09 15:33 -31.11691 134.00392 34143 ft 425 kts 309°
2025-09-09 15:35 -30.94632 133.81409 34148 ft 423 kts 308°
2025-09-09 15:37 -30.75520 133.60264 34153 ft 419 kts 308°
2025-09-09 15:39 -30.60734 133.43990 34147 ft 417 kts 308°
2025-09-09 15:41 -30.43927 133.25573 34162 ft 415 kts 308°
2025-09-09 15:43 -30.27161 133.07295 34170 ft 413 kts 308°
2025-09-09 15:45 -30.10442 132.89156 34172 ft 411 kts 308°
2025-09-09 15:46 -29.95867 132.73415 34181 ft 409 kts 308°
2025-09-09 15:49 -29.77206 132.53357 34191 ft 408 kts 308°
2025-09-09 15:50 -29.62704 132.37844 34199 ft 407 kts 308°
2025-09-09 15:53 -29.42019 132.15828 34209 ft 405 kts 308°
2025-09-09 15:55 -29.27535 132.00486 34222 ft 405 kts 308°
2025-09-09 15:57 -29.11026 131.83075 34226 ft 404 kts 308°
2025-09-09 15:59 -28.94490 131.65716 34224 ft 403 kts 308°
2025-09-09 16:01 -28.75927 131.46321 34247 ft 402 kts 308°
2025-09-09 16:03 -28.61430 131.31241 34244 ft 403 kts 309°
2025-09-09 16:05 -28.42762 131.11916 34259 ft 403 kts 309°
2025-09-09 16:07 -28.28268 130.96981 34260 ft 402 kts 309°
2025-09-09 16:09 -28.09631 130.77858 34259 ft 402 kts 309°
2025-09-09 16:11 -27.95123 130.63036 34267 ft 401 kts 309°
2025-09-09 16:13 -27.76433 130.44024 34267 ft 402 kts 309°
2025-09-09 16:15 -27.61905 130.29309 34268 ft 401 kts 309°
2025-09-09 16:17 -27.43170 130.10412 34281 ft 402 kts 309°
2025-09-09 16:19 -27.29291 129.96473 34276 ft 401 kts 309°
2025-09-09 16:21 -27.10502 129.77677 34271 ft 402 kts 309°
2025-09-09 16:23 -26.95852 129.63084 34275 ft 404 kts 309°
2025-09-09 16:25 -26.76896 129.44279 34261 ft 405 kts 309°
2025-09-09 16:27 -26.62100 129.29661 34270 ft 406 kts 309°
2025-09-09 16:29 -26.43021 129.10888 34265 ft 407 kts 309°
2025-09-09 16:31 -26.28089 128.96254 34263 ft 409 kts 310°
2025-09-09 16:33 -26.10130 128.80401 34267 ft 414 kts 313°
2025-09-09 16:35 -25.92001 128.64637 34290 ft 412 kts 313°
2025-09-09 16:37 -25.71953 128.47273 34266 ft 407 kts 313°
2025-09-09 16:39 -25.56276 128.33749 34258 ft 409 kts 314°
2025-09-09 16:41 -25.36040 128.16361 34254 ft 410 kts 314°
2025-09-09 16:43 -25.20270 128.02862 34246 ft 409 kts 314°
2025-09-09 16:45 -24.99981 127.85561 34239 ft 410 kts 314°
2025-09-09 16:47 -24.84131 127.72097 34246 ft 411 kts 314°
2025-09-09 16:49 -24.65983 127.56735 34230 ft 413 kts 314°
2025-09-09 16:51 -24.47769 127.41374 34236 ft 413 kts 314°
2025-09-09 16:53 -24.27177 127.24077 34225 ft 415 kts 314°
2025-09-09 16:55 -24.11076 127.10597 34225 ft 416 kts 314°
2025-09-09 16:57 -23.90342 126.93304 34218 ft 418 kts 314°
2025-09-09 16:59 -23.74138 126.79837 34214 ft 418 kts 314°
2025-09-09 17:01 -23.53276 126.62562 34217 ft 420 kts 315°
2025-09-09 17:03 -23.36961 126.49099 34204 ft 421 kts 315°
2025-09-09 17:05 -23.15929 126.31825 34191 ft 422 kts 315°
2025-09-09 17:07 -23.00273 126.19006 34190 ft 423 kts 315°
2025-09-09 17:09 -22.79088 126.01722 34181 ft 425 kts 315°
2025-09-09 17:11 -22.62531 125.88261 34173 ft 426 kts 315°
2025-09-09 17:13 -22.41147 125.70938 34164 ft 428 kts 316°
2025-09-09 17:15 -22.24458 125.57465 34163 ft 429 kts 316°
2025-09-09 17:17 -22.05293 125.42044 34154 ft 430 kts 316°
2025-09-09 17:19 -21.86120 125.26669 34151 ft 431 kts 316°